TimeEDT,TemperatureF,Dew PointF,Humidity,Sea Level PressureIn,VisibilityMPH,Wind Direction,Wind SpeedMPH,Gust SpeedMPH,PrecipitationIn,Events,Conditions,WindDirDegrees,DateUTC
12:20 AM,59.0,55.4,88,30.02,10.0,NNW,4.6,-,N/A,,Mostly Cloudy,340,2013-08-30 04:20:00
12:32 AM,60.8,55.4,82,30.02,10.0,NNW,5.8,-,N/A,,Overcast,330,2013-08-30 04:32:00
12:52 AM,60.1,55.9,86,30.02,10.0,NNW,5.8,-,N/A,,Overcast,340,2013-08-30 04:52:00
1:07 AM,59.0,55.4,88,30.02,10.0,NNW,3.5,-,N/A,,Scattered Clouds,340,2013-08-30 05:07:00
1:52 AM,57.9,55.0,90,30.01,10.0,NNW,4.6,-,N/A,,Clear,340,2013-08-30 05:52:00
2:10 AM,59.0,55.4,88,30.01,10.0,North,4.6,-,N/A,,Mostly Cloudy,350,2013-08-30 06:10:00
2:52 AM,60.1,57.0,90,30.00,10.0,Calm,Calm,-,N/A,,Overcast,0,2013-08-30 06:52:00
3:52 AM,61.0,57.0,87,29.99,10.0,Calm,Calm,-,N/A,,Overcast,0,2013-08-30 07:52:00
4:52 AM,61.0,57.0,87,29.98,10.0,WNW,3.5,-,N/A,,Overcast,300,2013-08-30 08:52:00
5:52 AM,61.0,57.0,87,29.99,10.0,West,4.6,-,N/A,,Overcast,280,2013-08-30 09:52:00
6:52 AM,62.1,57.0,84,30.00,10.0,West,4.6,-,N/A,,Overcast,280,2013-08-30 10:52:00
7:52 AM,63.0,57.9,84,29.99,10.0,West,6.9,-,N/A,,Overcast,260,2013-08-30 11:52:00
8:52 AM,64.9,57.9,78,29.99,10.0,WSW,6.9,-,N/A,,Mostly Cloudy,240,2013-08-30 12:52:00
9:30 AM,64.4,57.2,77,29.98,10.0,West,9.2,-,N/A,,Overcast,260,2013-08-30 13:30:00
9:52 AM,66.0,59.0,78,29.98,10.0,WSW,6.9,-,N/A,,Overcast,250,2013-08-30 13:52:00
9:54 AM,66.2,59.0,78,29.98,10.0,West,6.9,-,N/A,,Overcast,260,2013-08-30 13:54:00
10:52 AM,66.9,60.1,79,29.97,10.0,WSW,9.2,-,N/A,,Overcast,250,2013-08-30 14:52:00
11:52 AM,70.0,61.0,73,29.95,10.0,WSW,8.1,-,N/A,,Overcast,240,2013-08-30 15:52:00
12:21 PM,71.6,62.6,73,29.94,10.0,WSW,10.4,-,N/A,,Overcast,250,2013-08-30 16:21:00
12:52 PM,72.0,62.1,71,29.93,10.0,WSW,9.2,-,N/A,,Overcast,250,2013-08-30 16:52:00
1:52 PM,75.0,63.0,66,29.91,10.0,SW,10.4,-,N/A,,Overcast,220,2013-08-30 17:52:00
2:52 PM,75.9,64.0,67,29.88,10.0,WSW,9.2,-,N/A,,Mostly Cloudy,250,2013-08-30 18:52:00
3:36 PM,78.8,64.4,61,29.88,10.0,WSW,9.2,-,N/A,,Scattered Clouds,240,2013-08-30 19:36:00
3:52 PM,78.1,64.9,64,29.87,10.0,SW,11.5,-,N/A,,Partly Cloudy,220,2013-08-30 19:52:00
4:52 PM,78.1,64.9,64,29.86,10.0,SW,10.4,-,N/A,,Clear,230,2013-08-30 20:52:00
5:52 PM,77.0,64.9,66,29.87,10.0,SW,8.1,-,N/A,,Clear,220,2013-08-30 21:52:00
6:52 PM,73.9,64.9,73,29.86,10.0,SSW,4.6,-,N/A,,Clear,200,2013-08-30 22:52:00
7:52 PM,71.1,64.9,81,29.87,10.0,SSW,6.9,-,N/A,,Clear,210,2013-08-30 23:52:00
8:52 PM,69.1,64.9,87,29.87,10.0,SSW,5.8,-,N/A,,Clear,210,2013-08-31 00:52:00
9:52 PM,69.1,64.9,87,29.87,10.0,SW,4.6,-,N/A,,Clear,220,2013-08-31 01:52:00
10:52 PM,68.0,64.9,90,29.87,8.0,SSW,4.6,-,N/A,,Clear,200,2013-08-31 02:52:00
11:52 PM,68.0,64.9,90,29.86,6.0,Variable,3.5,-,N/A,,Clear,0,2013-08-31 03:52:00